This is the latest recevied weather packets stored in our database for station/object JH7UAX-10. If no packets are shown the sender has not sent any weather packets the latest 10 day(s).
| Time | Temp. | Humidity | Pressure | Rain* | Wind** | Luminosity | Snow |
|---|---|---|---|---|---|---|---|
| 1777696679 | 15° C | 73% | 1015.6 hPa | 0 mm | - | - | - |
| 1777695779 | 15° C | 74% | 1015.5 hPa | 0 mm | - | - | - |
| 1777695304 | 14.44° C | 74% | 1015.3 hPa | 0 mm | - | - | - |
| 1777694878 | 14.44° C | 75% | 1014.9 hPa | 0 mm | - | - | - |
| 1777694406 | 14.44° C | 78% | 1014.7 hPa | 0 mm | - | - | - |
| 1777693978 | 14.44° C | 79% | 1014.6 hPa | 0 mm | - | - | - |
| 1777693505 | 13.89° C | 77% | 1014.3 hPa | 0 mm | - | - | - |
| 1777693078 | 14.44° C | 78% | 1014.1 hPa | 0 mm | - | - | - |
| 1777692605 | 13.89° C | 77% | 1014 hPa | 0 mm | - | - | - |
| 1777692180 | 14.44° C | 76% | 1013.8 hPa | 0 mm | - | - | - |
| 1777691705 | 14.44° C | 78% | 1013.6 hPa | 0 mm | - | - | - |
| 1777691279 | 13.89° C | 79% | 1013.5 hPa | 0 mm | - | - | - |
| 1777690805 | 13.33° C | 81% | 1013.5 hPa | 0 mm | - | - | - |
| 1777690379 | 13.33° C | 84% | 1013.3 hPa | 0 mm | - | - | - |
| 1777689478 | 13.33° C | 83% | 1012.9 hPa | 0 mm | - | - | - |
| 1777689006 | 13.33° C | 82% | 1012.7 hPa | 0 mm | - | - | - |
| 1777688578 | 13.33° C | 82% | 1012.5 hPa | 0 mm | - | - | - |
| 1777688106 | 13.33° C | 82% | 1012.3 hPa | 0 mm | - | - | - |
| 1777687679 | 13.33° C | 81% | 1012.3 hPa | 0 mm | - | - | - |
| 1777687205 | 13.33° C | 81% | 1012.1 hPa | 0 mm | - | - | - |
| 1777686779 | 13.33° C | 82% | 1012 hPa | 0 mm | - | - | - |
| 1777685879 | 13.33° C | 81% | 1011.9 hPa | 0 mm | - | - | - |
| 1777685406 | 13.33° C | 82% | 1011.8 hPa | 0 mm | - | - | - |
| 1777684978 | 13.33° C | 80% | 1011.8 hPa | 0 mm | - | - | - |
| 1777684078 | 13.33° C | 81% | 1012 hPa | 0 mm | - | - | - |
* Rain latest hour (hover to see other rain measurements)
** Current wind speed in m/s (hover to see current wind gust speed)